GLOBALSTAR M001 1 25162U 98008A 25349.92539131 -.00000051 00000+0 34727-3 0 9999 2 25162 52.0005 164.2540 0000267 308.4166 216.8327 12.38223745266229 GLOBALSTAR M004 1 25163U 98008B 25349.79986360 -.00000070 00000+0 18570-3 0 9994 2 25163 51.9987 220.0906 0003169 352.9847 84.6532 12.63411043284641 GLOBALSTAR M002 1 25164U 98008C 25349.74603126 -.00000065 00000+0 21949-3 0 9994 2 25164 51.9983 144.9728 0002623 110.4362 249.6739 11.61514728205160 GLOBALSTAR M003 1 25165U 98008D 25349.81776081 -.00000197 00000+0 -11448-2 0 9993 2 25165 51.9927 25.4589 0007753 299.3114 232.2645 12.12042208255242 GLOBALSTAR M014 1 25306U 98023A 25349.96916436 -.00000084 00000+0 -11748-3 0 9992 2 25306 51.9856 63.8142 0000383 359.3428 171.6439 11.65483643212360 GLOBALSTAR M006 1 25307U 98023B 25349.13723697 -.00000066 00000+0 19784-3 0 9994 2 25307 51.9921 125.1540 0004117 85.7058 85.0499 11.58178848237794 GLOBALSTAR M015 1 25308U 98023C 25349.96635926 -.00000064 00000+0 22737-3 0 9993 2 25308 51.9805 229.8954 0013528 41.8368 331.1426 11.48862736214975 GLOBALSTAR M008 1 25309U 98023D 25349.87712664 -.00000086 00000+0 82591-4 0 9998 2 25309 51.9989 31.2839 0002828 191.2456 339.6927 12.36076733260315 GLOBALSTAR M023 1 25621U 99004A 25349.98032373 -.00000062 00000+0 23090-3 0 9991 2 25621 52.0089 219.8739 0009969 163.9956 302.6688 12.62510459238699 GLOBALSTAR M040 1 25622U 99004B 25349.92633782 -.00000087 00000+0 94778-4 0 9996 2 25622 51.9899 224.4604 0001924 70.9253 302.7192 12.62025049238204 GLOBALSTAR M036 1 25623U 99004C 25349.64337227 -.00000084 00000+0 -24286-4 0 9996 2 25623 51.9955 122.0322 0010872 42.6426 330.7728 11.86618324200527 GLOBALSTAR M038 1 25624U 99004D 25349.28870284 -.00000079 00000+0 13629-3 0 9993 2 25624 51.9981 270.0161 0002591 65.4497 108.6480 12.32537420224704 GLOBALSTAR M022 1 25649U 99012A 25349.88646563 -.00000032 00000+0 65433-3 0 9995 2 25649 52.0010 156.9556 0003208 150.2081 17.4180 12.02508147198237 GLOBALSTAR M041 1 25650U 99012B 25349.88852743 -.00000093 00000+0 -10149-3 0 9998 2 25650 52.0037 43.9407 0000761 327.0092 33.0697 11.96681250200033 GLOBALSTAR M046 1 25651U 99012C 25349.51072789 -.00000199 00000+0 -12200-2 0 9999 2 25651 52.0052 101.4917 0001466 230.6747 210.7207 12.09416393205604 GLOBALSTAR M037 1 25652U 99012D 25349.74363975 -.00000071 00000+0 18013-3 0 9992 2 25652 52.0027 351.1442 0001789 225.9694 305.3800 12.62458366234203 GLOBALSTAR M045 1 25676U 99019A 25349.85340014 -.00000071 00000+0 19542-3 0 9994 2 25676 51.9942 147.4771 0001012 114.7695 37.2788 12.27070589215695 GLOBALSTAR M019 1 25677U 99019B 25349.60954464 .00000013 00000+0 10719-2 0 9999 2 25677 51.9888 291.3074 0001641 349.5666 181.4307 12.13876789207178 GLOBALSTAR M044 1 25678U 99019C 25349.91195331 -.00000050 00000+0 46625-3 0 9992 2 25678 51.9974 264.5609 0006837 31.8387 44.4060 11.90261599192969 GLOBALSTAR M042 1 25679U 99019D 25349.96711603 -.00000051 00000+0 38457-3 0 9999 2 25679 52.0014 257.7814 0002958 332.2954 110.8287 12.22094146207488 GLOBALSTAR M025 1 25770U 99031A 25349.80556560 -.00000069 00000+0 -57960-4 0 9998 2 25770 51.9816 98.5362 0003003 96.8401 71.0420 11.22558944502103 GLOBALSTAR M049 1 25771U 99031B 25349.81953117 -.00000116 00000+0 -17601-2 0 9998 2 25771 51.9843 142.3953 0002200 343.2480 16.8243 11.12123646137630 GLOBALSTAR M047 1 25772U 99031C 25349.88614060 -.00000079 00000+0 -25908-3 0 9995 2 25772 51.9817 121.8540 0016171 210.9698 149.0155 11.31931719491687 GLOBALSTAR M052 1 25773U 99031D 25349.94272983 -.00000085 00000+0 -64423-3 0 9999 2 25773 51.9859 248.2373 0003319 97.0962 348.7086 11.15062327498781 GLOBALSTAR M035 1 25851U 99037A 25349.78034831 -.00000097 00000+0 -12642-2 0 9990 2 25851 51.9984 9.9930 0013569 275.7664 255.1578 11.04540240116327 GLOBALSTAR M032 1 25852U 99037B 25349.92639503 -.00000051 00000+0 51711-3 0 9994 2 25852 51.9913 182.3293 0013767 110.4613 249.7666 11.19075136155139 GLOBALSTAR M051 1 25853U 99037C 25349.29330923 -.00000107 00000+0 -85657-3 0 9998 2 25853 51.9823 323.9945 0000165 42.1831 317.8992 11.42203251153086 GLOBALSTAR M030 1 25854U 99037D 25349.63294482 -.00000062 00000+0 27901-3 0 9993 2 25854 51.9866 117.7397 0003376 33.3982 326.7047 11.55110240171012 GLOBALSTAR M048 1 25872U 99041A 25349.80093420 -.00000065 00000+0 14086-3 0 9999 2 25872 51.9372 264.8266 0013315 135.0697 258.7176 11.33860929145582 GLOBALSTAR M026 1 25873U 99041B 25349.65971060 -.00000030 00000+0 12513-2 0 9992 2 25873 51.9991 126.3043 0001860 173.5238 199.3629 11.06849513168589 GLOBALSTAR M043 1 25874U 99041C 25349.79453676 -.00000016 00000+0 15567-2 0 9992 2 25874 51.9431 19.7192 0013439 258.9353 272.7240 11.25697335143324 GLOBALSTAR M028 1 25875U 99041D 25349.74020323 -.00000087 00000+0 86256-4 0 9990 2 25875 51.9643 11.7001 0063571 105.8482 254.9398 12.50592613212893 GLOBALSTAR M024 1 25883U 99043A 25349.88274497 -.00000120 00000+0 -19422-2 0 9997 2 25883 52.0047 330.6527 0001708 29.9043 337.3505 11.10166390135042 GLOBALSTAR M027 1 25884U 99043B 25349.88283316 -.00000035 00000+0 10826-2 0 9991 2 25884 52.0234 53.7811 0020976 283.8240 76.0220 11.04372232161315 GLOBALSTAR M054 1 25885U 99043C 25349.86183811 -.00000050 00000+0 54299-3 0 9999 2 25885 52.0105 150.6380 0005945 123.2454 26.3702 11.39224889139752 GLOBALSTAR M053 1 25886U 99043D 25349.81288579 -.00000077 00000+0 -25538-3 0 9996 2 25886 51.9975 107.9266 0003634 49.6336 113.2946 11.27669000139938 GLOBALSTAR M058 1 25907U 99049A 25349.33643078 -.00000091 00000+0 -84213-4 0 9994 2 25907 51.9968 345.4553 0001719 263.8113 96.2526 11.93206612563166 GLOBALSTAR M050 1 25908U 99049B 25349.90658264 -.00000120 00000+0 -35368-3 0 9990 2 25908 52.0011 338.0321 0009326 34.0734 337.1432 12.07461852170148 GLOBALSTAR M033 1 25909U 99049C 25349.86100740 -.00000050 00000+0 39551-3 0 9996 2 25909 51.9880 197.4423 0013112 280.1045 79.8322 12.20294636557920 GLOBALSTAR M055 1 25910U 99049D 25349.88146587 -.00000057 00000+0 31591-3 0 9992 2 25910 51.9989 199.2840 0007537 140.2690 219.8715 12.29438033190634 GLOBALSTAR M057 1 25943U 99058A 25349.85076299 -.00000043 00000+0 45375-3 0 9997 2 25943 51.9954 192.6406 0003281 43.5166 316.5942 12.24832039189197 GLOBALSTAR M059 1 25944U 99058B 25349.95290940 -.00000104 00000+0 -21878-3 0 9991 2 25944 52.0032 75.4323 0000465 120.2585 50.8054 11.99988173595861 GLOBALSTAR M056 1 25945U 99058C 25349.72568660 -.00000113 00000+0 -30079-3 0 9997 2 25945 51.9973 73.3532 0001397 163.7321 4.8405 12.04781060184505 GLOBALSTAR M031 1 25946U 99058D 25349.97769021 -.00000012 00000+0 80008-3 0 9993 2 25946 51.9979 314.1060 0000997 180.0025 221.3524 12.16044773186665 GLOBALSTAR M039 1 25961U 99062A 25349.64517250 -.00000060 00000+0 24694-3 0 9996 2 25961 51.9854 76.0231 0002659 46.2825 313.8261 12.62339646203130 GLOBALSTAR M034 1 25962U 99062B 25349.90579978 -.00000042 00000+0 61505-3 0 9993 2 25962 51.9872 259.0230 0015065 26.7672 50.3917 11.79454058159831 GLOBALSTAR M029 1 25963U 99062C 25349.64155080 -.00000086 00000+0 58344-5 0 9996 2 25963 51.9833 324.1565 0002555 105.2133 66.4902 11.99903886190904 GLOBALSTAR M061 1 25964U 99062D 25349.74861509 -.00000100 00000+0 -32062-3 0 9993 2 25964 51.9797 85.8734 0005104 306.1621 215.9854 11.76777933142552 GLOBALSTAR M063 1 26081U 00008A 25349.77907946 -.00000137 00000+0 -79145-3 0 9998 2 26081 51.9982 353.3203 0004570 304.0100 227.2860 11.86178451179125 GLOBALSTAR M062 1 26082U 00008B 25349.86011399 -.00000119 00000+0 -14486-3 0 9994 2 26082 51.9861 281.5316 0007177 133.9039 264.6901 12.43478831519224 GLOBALSTAR M060 1 26083U 00008C 25349.97096197 -.00000089 00000+0 18994-4 0 9990 2 26083 52.0027 266.9338 0003491 119.5564 321.4673 12.17670951174515 GLOBALSTAR M064 1 26084U 00008D 25349.71399754 -.00000101 00000+0 -24892-3 0 9997 2 26084 52.0033 90.1789 0001878 74.4306 285.6734 11.88539359188685 GLOBALSTAR M065 1 31571U 07020A 25349.61641866 -.00000107 00000+0 -17791-4 0 9995 2 31571 51.9916 34.0486 0009641 352.2801 171.6769 12.62015613856313 GLOBALSTAR M069 1 31573U 07020C 25349.88874058 -.00000067 00000+0 23612-3 0 9999 2 31573 52.0047 50.9301 0002362 131.6322 40.1019 12.23464865856362 GLOBALSTAR M072 1 31574U 07020D 25349.86448524 -.00000055 00000+0 39391-3 0 9991 2 31574 51.9913 228.3019 0001251 8.8851 73.5784 11.91654373853127 GLOBALSTAR M071 1 31576U 07020F 25349.96836444 -.00000160 00000+0 -67795-3 0 9993 2 31576 52.0069 81.4471 0001645 120.6844 50.9410 12.18262756517093 GLOBALSTAR M067 1 32263U 07048A 25349.91074116 -.00000087 00000+0 79527-4 0 9996 2 32263 51.9714 224.1892 0001883 39.9495 333.4186 12.40682805832043 GLOBALSTAR M070 1 32264U 07048B 25349.85066154 -.00000091 00000+0 69103-4 0 9997 2 32264 51.9764 295.0780 0000419 63.7965 340.9117 12.62327386836611 GLOBALSTAR M066 1 32265U 07048C 25349.97754582 -.00000084 00000+0 89332-4 0 9998 2 32265 51.9578 223.8555 0005593 28.4450 75.2769 12.30383260837675 GLOBALSTAR M068 1 32266U 07048D 25349.73720184 -.00000073 00000+0 17008-3 0 9992 2 32266 51.9878 108.8239 0001705 146.8898 0.9646 12.62835477840492 GLOBALSTAR M079 1 37188U 10054A 25349.61157208 -.00000094 00000+0 52091-4 0 9994 2 37188 52.0059 307.5019 0000585 22.7166 148.1148 12.62269238699368 GLOBALSTAR M074 1 37189U 10054B 25349.92541036 -.00000104 00000+0 -32291-5 0 9999 2 37189 52.0034 305.8409 0000675 54.1991 343.1045 12.62264080700019 GLOBALSTAR M076 1 37190U 10054C 25349.66702708 -.00000098 00000+0 34013-4 0 9991 2 37190 52.0046 306.8161 0000750 40.9939 140.4944 12.62268113699697 GLOBALSTAR M077 1 37191U 10054D 25349.88146553 -.00000092 00000+0 -25595-3 0 9995 2 37191 51.9988 284.9158 0001122 26.7826 7.5566 11.68176634699722 GLOBALSTAR M075 1 37192U 10054E 25349.96070633 -.00000088 00000+0 90237-4 0 9990 2 37192 51.9969 348.0757 0000308 75.7696 302.5424 12.62270528698804 GLOBALSTAR M073 1 37193U 10054F 25349.97505115 -.00000103 00000+0 36554-5 0 9991 2 37193 52.0067 261.9942 0000854 46.7459 34.5509 12.62267879700799 GLOBALSTAR M083 1 37739U 11033A 25349.91409782 -.00000072 00000+0 17768-3 0 9991 2 37739 51.9838 210.6587 0000951 67.4722 38.6844 12.62265710669801 GLOBALSTAR M088 1 37740U 11033B 25349.39726293 -.00000105 00000+0 -70461-5 0 9993 2 37740 52.0202 118.2123 0000989 114.5031 281.2064 12.62271064665284 GLOBALSTAR M091 1 37741U 11033C 25349.67671866 -.00000078 00000+0 14616-3 0 9996 2 37741 52.0001 80.6001 0000651 132.5345 32.9201 12.62268232666102 GLOBALSTAR M085 1 37742U 11033D 25349.90247789 -.00000097 00000+0 36941-4 0 9993 2 37742 52.0144 31.0446 0000245 157.8332 14.7236 12.62267345666648 GLOBALSTAR M081 1 37743U 11033E 25349.84926064 -.00000094 00000+0 55001-4 0 9992 2 37743 51.9978 33.8502 0000247 105.2377 66.0244 12.62270915666784 GLOBALSTAR M089 1 37744U 11033F 25349.49211160 -.00000080 00000+0 13013-3 0 9999 2 37744 51.9952 349.1318 0000590 73.1629 94.8476 12.62262333667589 GLOBALSTAR M084 1 38040U 11080A 25349.96715829 -.00000077 00000+0 14969-3 0 9991 2 38040 51.9989 215.0714 0001312 74.7934 31.9123 12.62266634645629 GLOBALSTAR M080 1 38041U 11080B 25349.93772448 -.00000077 00000+0 14697-3 0 9997 2 38041 52.0038 216.8156 0000702 98.7895 4.0568 12.62264860645746 GLOBALSTAR M082 1 38042U 11080C 25349.88204223 -.00000076 00000+0 15713-3 0 9992 2 38042 52.0045 172.4656 0000857 105.1610 34.1757 12.62266286646442 GLOBALSTAR M092 1 38043U 11080D 25349.83430928 -.00000097 00000+0 37337-4 0 9991 2 38043 52.0085 262.9988 0000800 63.1264 338.8029 12.62268360644894 GLOBALSTAR M090 1 38044U 11080E 25349.91053179 -.00000080 00000+0 13304-3 0 9999 2 38044 52.0093 166.2759 0000932 88.9851 58.7861 12.62265504646564 GLOBALSTAR M086 1 38045U 11080F 25349.74688009 -.00000070 00000+0 18771-3 0 9999 2 38045 51.9870 167.0025 0001424 42.7200 330.8549 12.62281205646499 GLOBALSTAR M097 1 39072U 13005A 25349.69286185 -.00000121 00000+0 -96648-4 0 9990 2 39072 52.0052 81.9072 0000567 110.5254 249.5674 12.62267759593731 GLOBALSTAR M093 1 39073U 13005B 25349.66676922 -.00000111 00000+0 -41707-4 0 9995 2 39073 52.0113 75.2649 0000311 114.0318 246.0582 12.62271096593686 GLOBALSTAR M094 1 39074U 13005C 25349.74581238 -.00000094 00000+0 53138-4 0 9990 2 39074 51.9977 349.3245 0000219 16.7966 343.2908 12.62265379595304 GLOBALSTAR M096 1 39075U 13005D 25349.83804682 -.00000099 00000+0 26683-4 0 9992 2 39075 52.0089 37.6985 0000204 144.5329 215.5552 12.62269397594237 GLOBALSTAR M078 1 39076U 13005E 25349.65368775 -.00000098 00000+0 30662-4 0 9992 2 39076 51.9861 122.5249 0000917 168.3538 191.7350 12.62272535592831 GLOBALSTAR M095 1 39077U 13005F 25349.83830118 -.00000108 00000+0 -21846-4 0 9995 2 39077 52.0067 119.3057 0000583 130.9598 229.1319 12.62267295592718 GLOBALSTAR M087 1 52888U 22064A 25349.93052632 -.00000086 00000+0 10151-3 0 9993 2 52888 51.9998 260.3695 0000652 47.4011 312.6911 12.62261458167997